This is the latest recevied weather packets stored in our database for station/object OK2ZA-6. If no packets are shown the sender has not sent any weather packets the latest 1 day(s).
| Time | Temp. | Humidity | Pressure | Rain* | Wind** | Luminosity | Snow |
|---|---|---|---|---|---|---|---|
| 1777986004 | 22.22° C | 46% | 1007.2 hPa | 0 mm | 4.92 m/s, 133° | - | - |
| 1777985403 | 22.22° C | 44% | 1007.3 hPa | 0 mm | 4.02 m/s, 123° | - | - |
| 1777984804 | 21.67° C | 45% | 1007.4 hPa | 0 mm | 4.47 m/s, 138° | - | - |
| 1777984204 | 21.67° C | 47% | 1007.5 hPa | 0 mm | 4.92 m/s, 138° | - | - |
| 1777983603 | 21.67° C | 46% | 1007.6 hPa | 0 mm | 4.47 m/s, 119° | - | - |
| 1777983015 | 21.67° C | 47% | 1007.7 hPa | 0 mm | 4.47 m/s, 131° | - | - |
| 1777982403 | 21.67° C | 47% | 1007.7 hPa | 0 mm | 4.47 m/s, 123° | - | - |
| 1777981803 | 21.11° C | 49% | 1007.7 hPa | 0 mm | 5.36 m/s, 138° | - | - |
| 1777981203 | 21.11° C | 48% | 1007.9 hPa | 0 mm | 4.02 m/s, 123° | - | - |
| 1777980603 | 21.11° C | 48% | 1008 hPa | 0 mm | 4.92 m/s, 119° | - | - |
| 1777980003 | 20.56° C | 48% | 1007.9 hPa | 0 mm | 4.47 m/s, 124° | - | - |
| 1777979404 | 20.56° C | 49% | 1008 hPa | 0 mm | 4.47 m/s, 124° | - | - |
| 1777978804 | 20.56° C | 50% | 1008.1 hPa | 0 mm | 4.47 m/s, 90° | - | - |
| 1777978204 | 20° C | 53% | 1008.1 hPa | 0 mm | 4.47 m/s, 75° | - | - |
| 1777977603 | 20° C | 52% | 1008.2 hPa | 0 mm | 4.02 m/s, 69° | - | - |
| 1777977004 | 20° C | 54% | 1008.3 hPa | 0 mm | 3.58 m/s, 66° | - | - |
| 1777976403 | 19.44° C | 53% | 1008.5 hPa | 0 mm | 4.02 m/s, 71° | - | - |
| 1777975804 | 18.89° C | 54% | 1008.5 hPa | 0 mm | 3.58 m/s, 113° | - | - |
| 1777975204 | 18.89° C | 54% | 1008.5 hPa | 0 mm | 3.58 m/s, 124° | - | - |
| 1777974604 | 18.33° C | 57% | 1008.6 hPa | 0 mm | 3.13 m/s, 131° | - | - |
| 1777974004 | 17.78° C | 57% | 1008.7 hPa | 0 mm | 3.58 m/s, 130° | - | - |
| 1777973404 | 17.78° C | 58% | 1008.7 hPa | 0 mm | 3.58 m/s, 128° | - | - |
| 1777972804 | 17.22° C | 56% | 1008.8 hPa | 0 mm | 3.58 m/s, 139° | - | - |
| 1777972204 | 17.22° C | 56% | 1008.8 hPa | 0 mm | 3.58 m/s, 107° | - | - |
| 1777971604 | 16.67° C | 57% | 1008.9 hPa | 0 mm | 3.13 m/s, 108° | - | - |
* Rain latest hour (hover to see other rain measurements)
** Current wind speed in m/s (hover to see current wind gust speed)